sat.trackr.live / text

‹ back to catalog

ALSAT-2A

NORAD 36798 · 2010-035D

PAYLOAD ACTIVE UNKNOWN

§ Identity

Operator
Country
ALG
Launch date
2010-07-12
Launch site
SRILR
Launch vehicle
Mass (kg)
RCS (m²)
0.79

External: N2YO · Heavens-Above · Gunter

§ Orbital elements

Epoch: 2026-05-25T03:30:51.196032Z

Period
97.66 min
Inclination
97.7634°
Eccentricity
0.0001272
Mean motion
14.74439524 rev/d
Perigee alt
646.0 km
Apogee alt
647.8 km
Semi-major
7,025.1 km
B*
5.5610e-5
RAAN
148.6721°
Arg perigee
67.0252°
Mean anomaly
293.1092°
Rev number
85,036

§ Raw data

ALSAT-2A1 36798U 10035D   26145.14642588  .00000322  00000+0  55610-4 0  99952 36798  97.7634 148.6721 0001272  67.0252 293.1092 14.74439524850365

JSON: /api/v1/satellites/36798 · /tle

For live sub-satellite position, see the globe view (requires WebGL).

§ Visibility from observer

Set your observer location to see the next 7 days of passes ≥ 10°. The values pass through the URL so the page stays shareable.

No JS? Fill the form by hand. The geolocation button needs JavaScript.

§ Radio — SatNOGS DB

ModeDescriptionDownlinkUplink
BPSK S-band telemetry 2.267 GHz

1 transmitter · refreshed weekly from db.satnogs.org